Niagara Falls, NY

8:23 AM EST on February 22, 2018 (GMT -0500)
Niagara Falls International

Weather History for KIAG - March, 2014

Change the Weather History Date:

Saturday, March 22, 2014

  Actual Average Record
Temperature  
Mean Temperature 34 °F -  
Max Temperature 43 °F 40 °F 80 °F (2012)
Min Temperature 28 °F 25 °F 15 °F (2002)
Degree Days  
Heating Degree Days 32    
Moisture  
Dew Point 26 °F    
Average Humidity 72    
Maximum Humidity 88    
Minimum Humidity 57    
Precipitation  
Precipitation 0.01 in - - ()
Sea Level Pressure  
Sea Level Pressure 29.90 in    
Wind  
Wind Speed 17 mph (West)    
Max Wind Speed 22 mph    
Max Gust Speed 30 mph    
Visibility 9 miles    
Events Rain , Snow    
Averages and records for this station are not official NWS values.
T = Trace of Precipitation, MM = Missing Value Source: NWS Daily Summary

Daily Weather History Graph

Daily Weather History Graph

Search for Another Location

Airport or City:

Trip Planner

Search our weather history database for the weather conditions in past years. The results will help you decide how hot, cold, wet, or windy it might be!

Date:

Astronomy

Mar. 22, 2014 Rise Set
Actual Time 7:15 AM EDT 7:30 PM EDT
Civil Twilight 6:47 AM EDT 7:58 PM EDT
Nautical Twilight 6:13 AM EDT 8:32 PM EDT
Astronomical Twilight 5:39 AM EDT 9:06 PM EDT
Moon 12:55 AM EDT 10:49 AM EDT
Length of Visible Light 13h 11m
Length of Day
12h 14m
Waning Gibbous, 65% of the Moon is Illuminated
Mar 22
Waning Gibbous
Mar 23
Last Quarter
Mar 30
New
Apr 7
First Quarter
Apr 15
Full

Hourly Weather History & Observations

Time (EDT) Temp. Windchill Dew Point Humidity Pressure Visibility Wind Dir Wind Speed Gust Speed Precip Events Conditions
12:53 AM 33.1 °F - 19.9 °F 59% 29.82 in 10.0 mi North - - N/A   Partly Cloudy
1:53 AM 33.1 °F - 21.0 °F 61% 29.76 in 10.0 mi North - - 0.00 in   Overcast
2:53 AM 35.1 °F - 21.0 °F 57% 29.71 in 10.0 mi North - - N/A   Overcast
3:53 AM 34.0 °F - 24.1 °F 67% 29.60 in 10.0 mi North - - 0.00 in   Overcast
4:53 AM 37.0 °F - 26.1 °F 65% 29.55 in 10.0 mi North - - N/A   Mostly Cloudy
5:53 AM 39.9 °F - 30.9 °F 70% 29.60 in 9.0 mi North - - 0.00 in Rain Light Rain
6:40 AM 34.0 °F - 30.0 °F 85% 29.60 in 6.0 mi North - - 0.00 in Snow Light Snow
7:05 AM 32.0 °F 22.5 °F 28.9 °F 88% 29.62 in 7.0 mi West 12.7 mph - 0.00 in   Overcast
7:53 AM 34.0 °F 23.4 °F 30.0 °F 85% 29.70 in 7.0 mi WSW 17.3 mph 26.5 mph N/A   Overcast
8:00 AM 34.0 °F 23.0 °F 30.0 °F 85% 29.67 in 7.0 mi West 18.4 mph 28.8 mph N/A   Overcast
8:53 AM 34.0 °F 22.7 °F 28.9 °F 82% 29.76 in 7.0 mi West 19.6 mph 28.8 mph N/A   Overcast
9:19 AM 34.0 °F 23.4 °F 30.0 °F 85% 29.74 in 7.0 mi West 17.3 mph - N/A   Overcast
9:35 AM 34.0 °F 22.7 °F 28.9 °F 82% 29.76 in 8.0 mi West 19.6 mph - N/A   Overcast
9:53 AM 35.1 °F 24.1 °F 28.0 °F 76% 29.82 in 10.0 mi West 19.6 mph - N/A   Overcast
10:27 AM 35.1 °F 24.8 °F 27.0 °F 72% 29.81 in 10.0 mi West 17.3 mph 27.6 mph N/A   Overcast
10:53 AM 35.1 °F 24.5 °F 27.0 °F 72% 29.88 in 10.0 mi West 18.4 mph 27.6 mph N/A   Overcast
11:47 AM 35.6 °F 24.8 °F 26.6 °F 70% 29.88 in 10.0 mi WNW 19.6 mph - N/A   Overcast
11:53 AM 35.1 °F 25.9 °F 27.0 °F 72% 29.93 in 10.0 mi West 13.8 mph 21.9 mph N/A   Overcast
12:53 PM 36.0 °F 25.6 °F 25.0 °F 64% 29.96 in 10.0 mi West 18.4 mph - N/A   Overcast
1:53 PM 36.0 °F 25.3 °F 25.0 °F 64% 29.99 in 10.0 mi West 19.6 mph - N/A   Mostly Cloudy
2:53 PM 36.0 °F 25.6 °F 26.1 °F 67% 30.00 in 10.0 mi West 18.4 mph - N/A   Mostly Cloudy
3:53 PM 35.1 °F 24.1 °F 25.0 °F 67% 30.03 in 10.0 mi West 19.6 mph - N/A   Overcast
4:24 PM 34.0 °F 22.7 °F 24.1 °F 67% 29.99 in 10.0 mi West 19.6 mph 26.5 mph N/A   Overcast
4:53 PM 34.0 °F 22.4 °F 23.0 °F 64% 30.05 in 10.0 mi West 20.7 mph 29.9 mph N/A   Overcast
5:41 PM 33.1 °F 21.9 °F 23.0 °F 66% 30.02 in 10.0 mi West 18.4 mph - N/A   Overcast
5:53 PM 33.1 °F 22.2 °F 23.0 °F 66% 30.06 in 10.0 mi West 17.3 mph - N/A   Overcast
6:53 PM 33.1 °F 23.0 °F 24.1 °F 70% 30.08 in 10.0 mi West 15.0 mph - N/A   Mostly Cloudy
7:53 PM 32.0 °F 23.6 °F 23.0 °F 69% 30.09 in 10.0 mi WSW 10.4 mph - N/A   Mostly Cloudy
8:45 PM 32.0 °F 23.0 °F 23.0 °F 69% 30.05 in 10.0 mi SW 11.5 mph - 0.00 in Snow Light Snow
8:53 PM 32.0 °F 23.0 °F 23.0 °F 69% 30.10 in 9.0 mi SW 11.5 mph - 0.00 in Snow Light Snow
9:44 PM 32.0 °F 23.0 °F 27.0 °F 82% 30.06 in 6.0 mi WSW 11.5 mph - 0.00 in Snow Light Snow
9:53 PM 32.0 °F 23.0 °F 27.0 °F 82% 30.11 in 6.0 mi SW 11.5 mph - 0.00 in Snow Light Snow
10:38 PM 32.0 °F 19.5 °F 27.0 °F 82% 30.08 in 7.0 mi NW 21.9 mph 26.5 mph 0.00 in Snow Light Snow
10:44 PM 30.9 °F 19.8 °F 24.1 °F 76% 30.08 in 8.0 mi WNW 16.1 mph 26.5 mph 0.00 in Snow Light Snow
10:53 PM 30.9 °F 19.8 °F 23.0 °F 72% 30.13 in 8.0 mi WNW 16.1 mph - 0.00 in Snow Light Snow
11:45 PM 28.9 °F 16.9 °F 21.9 °F 75% 30.10 in 10.0 mi NW 17.3 mph - 0.00 in   Overcast
11:53 PM 28.9 °F 17.7 °F 21.0 °F 72% 30.15 in 10.0 mi NW 15.0 mph - 0.00 in   Overcast